Marathon, FL

12:42 PM EST on February 07, 2016 (GMT -0500)
Florida Keys Marathon

Weather History for KMTH - August, 2014

Change the Weather History Date:

Saturday, August 2, 2014

  Actual Average Record
Temperature  
Mean Temperature 87 °F 86 °F  
Max Temperature 91 °F 91 °F 97 °F (2002)
Min Temperature 82 °F 80 °F 73 °F (2004)
Degree Days  
Heating Degree Days 0 0  
Month to date heating degree days 0 0  
Since 1 June heating degree days 0 0  
Since 1 July heating degree days 0 0  
Cooling Degree Days 22 21  
Month to date cooling degree days 44 41  
Year to date cooling degree days 3063 2798  
Since 1 June cooling degree days 1278 1255  
Growing Degree Days 37 (Base 50)    
Moisture  
Dew Point 76 °F    
Average Humidity 73    
Maximum Humidity 82    
Minimum Humidity 64    
Precipitation  
Precipitation 0.01 in 0.20 in 0.60 in (2001)
Month to date precipitation 0.03 0.39  
Year to date precipitation 13.05 22.22  
Snow  
Snow 0.00 in - - ()
Month to date snowfall 0.0  
Since 1 June snowfall 0.0  
Since 1 July snowfall 0.0  
Snow Depth 0.00 in    
Sea Level Pressure  
Sea Level Pressure 29.93 in    
Wind  
Wind Speed 4 mph (NE)    
Max Wind Speed 17 mph    
Max Gust Speed 25 mph    
Visibility 10 miles    
Events Thunderstorm    
T = Trace of Precipitation, MM = Missing Value Source: NWS Daily Summary

Daily Weather History Graph

Daily Weather History Graph

Search for Another Location

Airport or City:

Trip Planner

Search our weather history database for the weather conditions in past years. The results will help you decide how hot, cold, wet, or windy it might be!

Date:

Astronomy

Aug. 02, 2014 Rise Set
Actual Time 6:52 AM EDT 8:07 PM EDT
Civil Twilight 6:28 AM EDT 8:32 PM EDT
Nautical Twilight 5:59 AM EDT 9:01 PM EDT
Astronomical Twilight 5:29 AM EDT 9:31 PM EDT
Moon 12:28 PM EDT (8/2) No Moon Set
Length of Visible Light 14h 03m
Length of Day
13h 15m
Waxing Crescent, 36% of the Moon is Illuminated
Aug 2
Waxing Crescent
Aug 3
First Quarter
Aug 10
Full
Aug 17
Last Quarter
Aug 25
New

Hourly Weather History & Observations

Time (EDT) Temp. Heat Index Dew Point Humidity Pressure Visibility Wind Dir Wind Speed Gust Speed Precip Events Conditions
12:53 AM 84.9 °F 94.1 °F 75.9 °F 74% 29.97 in 10.0 mi Calm Calm - N/A   Scattered Clouds
1:53 AM 84.0 °F 91.2 °F 73.9 °F 72% 29.95 in 10.0 mi Calm Calm - N/A   Mostly Cloudy
2:25 AM 84.0 °F 92.6 °F 75.9 °F 76% 29.93 in 10.0 mi East 5.8 mph - N/A Thunderstorm Partly Cloudy
2:40 AM 84.9 °F 94.1 °F 75.9 °F 74% 29.93 in 10.0 mi East 5.8 mph - N/A   Partly Cloudy
2:53 AM 84.0 °F 92.6 °F 75.9 °F 76% 29.92 in 10.0 mi East 4.6 mph - N/A   Clear
3:53 AM 84.0 °F 92.6 °F 75.9 °F 76% 29.91 in 10.0 mi East 3.5 mph - N/A   Clear
4:53 AM 84.0 °F 92.6 °F 75.9 °F 76% 29.90 in 10.0 mi Variable 3.5 mph - N/A   Clear
5:53 AM 84.0 °F 92.6 °F 75.9 °F 76% 29.91 in 10.0 mi Variable 3.5 mph - N/A   Partly Cloudy
6:53 AM 84.0 °F 92.6 °F 75.9 °F 76% 29.91 in 10.0 mi Calm Calm - 0.00 in   Partly Cloudy
7:53 AM 84.9 °F 94.1 °F 75.9 °F 74% 29.94 in 10.0 mi East 5.8 mph - N/A   Partly Cloudy
8:53 AM 84.9 °F 94.1 °F 75.9 °F 74% 29.95 in 10.0 mi Calm Calm - N/A   Partly Cloudy
9:53 AM 86.0 °F 96.0 °F 75.9 °F 72% 29.96 in 10.0 mi NNW 5.8 mph - 0.01 in   Partly Cloudy
10:53 AM 88.0 °F 98.5 °F 75.9 °F 67% 29.96 in 10.0 mi North 5.8 mph - N/A   Clear
11:53 AM 90.0 °F 101.3 °F 75.9 °F 63% 29.97 in 10.0 mi Variable 3.5 mph - N/A   Clear
12:53 PM 89.1 °F 101.4 °F 77.0 °F 67% 29.96 in 10.0 mi Variable 3.5 mph - N/A   Clear
1:53 PM 89.1 °F 101.4 °F 77.0 °F 67% 29.94 in 10.0 mi NE 6.9 mph - N/A   Partly Cloudy
2:53 PM 88.0 °F 101.3 °F 78.1 °F 72% 29.91 in 10.0 mi Calm Calm - N/A   Overcast
3:06 PM 89.1 °F 103.2 °F 78.1 °F 70% 29.91 in 10.0 mi Variable 3.5 mph - N/A   Mostly Cloudy
3:42 PM 88.0 °F 100.2 °F 77.0 °F 70% 29.91 in 10.0 mi Calm Calm - N/A   Mostly Cloudy
3:53 PM 88.0 °F 100.2 °F 77.0 °F 70% 29.91 in 10.0 mi Variable 3.5 mph - N/A   Scattered Clouds
4:53 PM 86.0 °F 96.9 °F 77.0 °F 74% 29.91 in 10.0 mi NNE 15.0 mph 25.3 mph N/A   Scattered Clouds
5:38 PM 88.0 °F 100.2 °F 77.0 °F 70% 29.90 in 10.0 mi NNE 9.2 mph - N/A Thunderstorm Thunderstorm
5:53 PM 86.0 °F 98.3 °F 78.1 °F 77% 29.89 in 10.0 mi NNE 8.1 mph - N/A Thunderstorm Partly Cloudy
6:01 PM 86.0 °F 96.9 °F 77.0 °F 74% 29.90 in 10.0 mi North 5.8 mph - N/A   Partly Cloudy
6:53 PM 86.0 °F 96.9 °F 77.0 °F 74% 29.91 in 10.0 mi Calm Calm - N/A   Partly Cloudy
7:53 PM 86.0 °F 96.0 °F 75.9 °F 72% 29.91 in 10.0 mi Calm Calm - N/A   Mostly Cloudy
8:53 PM 84.9 °F 92.1 °F 73.9 °F 69% 29.92 in 10.0 mi NNE 4.6 mph - N/A   Clear
9:53 PM 84.9 °F 94.1 °F 75.9 °F 74% 29.93 in 10.0 mi North 3.5 mph - N/A   Mostly Cloudy
10:53 PM 84.0 °F 94.8 °F 78.1 °F 82% 29.94 in 10.0 mi NW 8.1 mph - N/A   Mostly Cloudy
11:53 PM 84.0 °F 94.8 °F 78.1 °F 82% 29.94 in 10.0 mi Variable 3.5 mph - N/A   Overcast